Fort Knox, KY

8:46 AM EST on December 13, 2019 (GMT -0500)
Godman Army Air Field

Weather History for KFTK - October, 2019

Change the Weather History Date:

Saturday, October 5, 2019

  Actual Average Record
Temperature  
Mean Temperature 68 °F -  
Max Temperature 84 °F 70 °F 90 °F (2018)
Min Temperature 51 °F 48 °F 35 °F (2014)
Cooling Degree Days 2    
Growing Degree Days 18 (Base 50)    
Moisture  
Dew Point 48 °F    
Average Humidity 56    
Maximum Humidity 83    
Minimum Humidity 24    
Precipitation  
Precipitation 0.00 in - - ()
Sea Level Pressure  
Sea Level Pressure 30.08 in    
Wind  
Wind Speed 7 mph (ENE)    
Max Wind Speed 12 mph    
Max Gust Speed -    
Visibility 10 miles    
Events Rain    
Averages and records for this station are not official NWS values.
T = Trace of Precipitation, MM = Missing Value Source: NWS Daily Summary

Daily Weather History Graph

Daily Weather History Graph

Search for Another Location

Airport or City:

Astronomy

Oct. 05, 2019 Rise Set
Actual Time 7:42 AM EDT 7:21 PM EDT
Civil Twilight 7:16 AM EDT 7:47 PM EDT
Nautical Twilight 6:46 AM EDT 8:17 PM EDT
Astronomical Twilight 6:15 AM EDT 8:48 PM EDT
Moon 3:02 PM EDT (10/5) No Moon Set
Length of Visible Light 12h 30m
Length of Day
11h 38m
Waxing Crescent, 50% of the Moon is Illuminated
Oct 5
Waxing Crescent
Oct 5
First Quarter
Oct 13
Full
Oct 21
Last Quarter
Oct 27
New

Hourly Weather History & Observations

Time (EDT) Temp. Dew Point Humidity Pressure Visibility Wind Dir Wind Speed Gust Speed Precip Events Conditions
12:56 AM 60.1 °F 44.8 °F 57% 30.20 in 10.0 mi NE 10.4 mph - N/A   Clear
1:45 AM 59.0 °F 44.6 °F 59% 30.18 in 10.0 mi NE 10.4 mph - N/A   Clear
1:56 AM 58.5 °F 44.6 °F 60% 30.18 in 10.0 mi NE 11.5 mph - N/A   Clear
2:56 AM 56.8 °F 44.8 °F 64% 30.17 in 10.0 mi NE 9.2 mph - N/A   Clear
3:41 AM 55.4 °F 44.6 °F 67% 30.15 in 10.0 mi ENE 9.2 mph - N/A   Clear
3:56 AM 55.9 °F 45.1 °F 67% 30.15 in 10.0 mi ENE 9.2 mph - N/A   Clear
4:56 AM 54.3 °F 45.9 °F 73% 30.15 in 10.0 mi NE 6.9 mph - N/A   Clear
5:50 AM 53.6 °F 46.4 °F 77% 30.13 in 10.0 mi NE 9.2 mph - N/A   Clear
5:56 AM 53.6 °F 46.2 °F 76% 30.13 in 10.0 mi ENE 8.1 mph - N/A   Clear
6:56 AM 52.9 °F 46.6 °F 79% 30.13 in 10.0 mi NE 6.9 mph - N/A   Clear
7:56 AM 51.4 °F 46.4 °F 83% 30.15 in 10.0 mi NE 6.9 mph - N/A   Clear
8:56 AM 54.1 °F 47.1 °F 77% 30.15 in 10.0 mi NE 8.1 mph - N/A   Clear
9:56 AM 57.7 °F 47.3 °F 68% 30.14 in 10.0 mi ENE 8.1 mph - N/A   Clear
10:56 AM 61.5 °F 47.5 °F 60% 30.14 in 10.0 mi East 6.9 mph - N/A   Clear
11:27 AM 64.4 °F 48.2 °F 56% 30.11 in 10.0 mi East 6.9 mph - N/A   Clear
11:56 AM 66.0 °F 48.4 °F 53% 30.10 in 10.0 mi ENE 5.8 mph - N/A   Clear
12:52 PM 71.6 °F 48.2 °F 43% 30.08 in 10.0 mi NE 3.5 mph - N/A   Clear
12:56 PM 71.1 °F 48.6 °F 45% 30.08 in 10.0 mi NE 4.6 mph - N/A   Clear
1:28 PM 73.4 °F 48.2 °F 41% 30.06 in 10.0 mi East 4.6 mph - N/A   Clear
1:56 PM 74.8 °F 48.2 °F 39% 30.05 in 10.0 mi Calm Calm - N/A   Clear
2:23 PM 77.0 °F 48.2 °F 36% 30.03 in 10.0 mi East 3.5 mph - N/A   Clear
2:56 PM 78.6 °F 47.8 °F 34% 30.02 in 10.0 mi Calm Calm - N/A   Clear
3:37 PM 80.6 °F 44.6 °F 28% 30.00 in 10.0 mi Calm Calm - N/A   Clear
3:56 PM 82.0 °F 44.8 °F 27% 30.00 in 10.0 mi ESE 3.5 mph - N/A   Clear
4:56 PM 83.5 °F 45.0 °F 26% 29.99 in 10.0 mi SE 3.5 mph - N/A   Clear
5:56 PM 84.0 °F 43.3 °F 24% 29.98 in 10.0 mi East 4.6 mph - N/A   Clear
6:56 PM 77.9 °F 50.9 °F 39% 29.98 in 10.0 mi North 3.5 mph - N/A   Clear
7:56 PM 67.8 °F 52.0 °F 57% 30.00 in 10.0 mi North 3.5 mph - N/A   Clear
8:56 PM 65.1 °F 50.9 °F 60% 30.00 in 10.0 mi Calm Calm - N/A   Clear
9:56 PM 63.9 °F 50.5 °F 62% 30.01 in 10.0 mi Calm Calm - N/A   Clear
10:56 PM 61.3 °F 51.8 °F 71% 30.01 in 10.0 mi Calm Calm - N/A   Mostly Cloudy
11:56 PM 63.7 °F 52.5 °F 67% 30.00 in 10.0 mi Calm Calm - N/A   Overcast
11:59 PM 64.4 °F 53.6 °F 68% 30.00 in 10.0 mi Calm Calm - N/A Rain Light Rain